Flag for U.S.A. Weather past 2 weeks in Hampton, Virginia, U.S.A.

Now
79 °F

Sunny.


Feels Like: 82 °F
Forecast: 74 / 82 °F
Wind: 10 mph from East

Location: Langley Air Force Base

Current Time: Aug 20, 2014 at 6:31:03 PM

Latest Report: Aug 20, 2014 at 5:58 PM


Visibility: 10 mi

Pressure: 29.99 "Hg

Humidity: 72%

Dew point: 69 °F

Location of HamptonLocation

Historic Weather in Hampton — Graph

°F

Hampton temperature yesterday

Maximum temperature yesterday: 81 °F (at 1:58 PM)
Minimum temperature yesterday: 73 °F (at 6:58 AM)
Average temperature yesterday: 75 °F

Past Weeks' High & Low Weather Summary

 TemperatureHumidityPressure
High87 °F (Aug 17, 2:58 PM)100% (Aug 6, 2:58 AM)30.16 "Hg (Aug 6, 2:58 AM)
Low64 °F (Aug 14, 6:58 AM)37% (Aug 14, 11:58 AM)29.75 "Hg (Aug 13, 2:58 AM)
Average76 °F81%29.97 "Hg
* Reported Aug 5 3:58 PM — Aug 20 3:58 PM, Hampton, Weather by CustomWeather, © 2014

Note: Actual official high and low records may vary slightly from our data, if they occured in-between our weather recording intervals... More about our weather records

Advertising

Hampton weather history for previous 24 hours

 ConditionsComfort  
Time TempWeatherWind HumidityBarometerVisibility
3:58 PM
Aug 20
82 °FSunny.9 mph66%29.98 "Hg10 mi
2:58 PM82 °FSunny.8 mph63%29.98 "Hg10 mi
1:58 PM81 °FSunny.7 mph63%29.99 "Hg10 mi
12:58 PM80 °FSunny.7 mph66%30.01 "Hg10 mi
11:58 AM80 °FSunny.6 mph68%30.02 "Hg10 mi
10:58 AM79 °FSunny.8 mph65%30.01 "Hg10 mi
9:58 AM78 °FSunny.8 mph80%29.99 "Hg10 mi
8:58 AM77 °FScattered clouds.7 mph83%29.98 "Hg10 mi
7:58 AM76 °FPartly sunny.7 mph94%29.97 "Hg10 mi
7:53 AM75 °FPartly sunny.6 mph94%29.95 "Hg10 mi
6:58 AM73 °FPassing clouds.5 mph100%29.95 "Hg10 mi
5:58 AM73 °FOvercast.6 mph100%29.93 "Hg10 mi
4:58 AM73 °FPassing clouds.12 mph100%29.91 "Hg10 mi
3:58 AM74 °FOvercast.9 mph100%29.90 "Hg10 mi
2:58 AM74 °FPartly cloudy.8 mph100%29.89 "Hg10 mi
1:58 AM74 °FPassing clouds.7 mph100%29.89 "Hg10 mi
1:03 AM75 °FOvercast.5 mph100%29.89 "Hg10 mi
12:58 AM75 °FMostly cloudy.6 mph99%29.89 "Hg10 mi
11:58 PM
Aug 19
75 °FOvercast.9 mph98%29.90 "Hg10 mi
10:58 PM76 °FOvercast.12 mph95%29.89 "Hg10 mi
9:58 PM76 °FMostly cloudy.10 mph98%29.88 "Hg10 mi
8:58 PM76 °FPassing clouds.14 mph99%29.86 "Hg10 mi
7:58 PM76 °FPartly sunny.14 mph100%29.86 "Hg8 mi
6:58 PM77 °FBroken clouds.14 mph100%29.85 "Hg10 mi
Weather by CustomWeather, © 2014

See weather overviewHow to use our weather pages